Hourly Data Report for April 20, 2021

CLYDE RIVER A
NUNAVUT
Current Station Operator: NAVCAN

70°29'09.000" N
68°31'01.000" W
26.50 m
2400804
71090
YCY

Download Data

Hourly Data (April 2021)
Hourly Data Report for April 20, 2021
TIME
LST
Temp Definition
°C
Dew Point Definition
°C
Rel Hum Definition
%
Precip. Amount Definition
mm

Wind Dir Definition
10's deg

Wind Spd Definition
km/h
Visibility Definition
km
Stn Press Definition
kPa
Hmdx Definition


Wind Chill Definition


Weather Definition


00:00 -15.8 -17.6 86 0.0 31 28 16.1 101.34   -27 LegendNANA
01:00 -15.4 -17.4 85 0.0 30 22 16.1 101.32   -25 LegendNANA
02:00 -15.2 -17.3 84 0.0 31 24 16.1 101.31   -25 LegendNANA
03:00 -15.0 -17.3 83 0.0 31 28 16.1 101.30   -26 LegendNANA
04:00 -16.2 -17.6 89 0.0 34 28 16.1 101.31   -27 LegendNANA
05:00 -15.9 -17.7 86 0.0 33 26 16.1 101.30   -27 LegendNANA
06:00 -15.2 -17.3 84 0.0 30 9 16.1 101.36   -21 LegendNANA
07:00 -14.1 -16.7 81 0.0 30 11 16.1 101.38   -21 LegendNANA
08:00 -14.7 -17.0 83 0.0 3 8 16.1 101.37   -20 LegendNANA
09:00 -14.5 -16.8 83 0.0 35 8 16.1 101.37   -20 LegendNANA
10:00 -14.5 -16.5 85 0.0 35 8 16.1 101.40   -20 LegendNANA
11:00 -14.1 -16.8 80 0.0 LegendMM 4 16.1 101.42   -17 LegendNANA
12:00 -13.8 -16.5 80 0.0 10 4 16.1 101.42   -17 LegendNANA
13:00 -14.1 -16.5 82 0.0 4 8 16.1 101.43   -19 LegendNANA
14:00 -14.2 -16.2 85 0.0 6 8 16.1 101.45   -19 LegendNANA
15:00 -14.4 -16.2 86 0.0 8 8 16.1 101.46   -20 LegendNANA
16:00 -14.2 -16.1 86 0.0 10 5 16.1 101.46   -18 LegendNANA
17:00 -15.4 -16.8 89 0.0 12 9 16.1 101.47   -21 LegendNANA
18:00 -15.9 -17.3 89 0.0 11 13 16.1 101.45   -23 LegendNANA
19:00 -16.2 -17.5 90 0.0 9 8 16.1 101.45   -22 LegendNANA
20:00 -18.7 -19.8 92 0.0 LegendMM 4 16.1 101.45   -22 LegendNANA
21:00 -20.2 -21.6 89 0.0 36 9 16.1 101.42   -27 LegendNANA
22:00 -20.7 -22.3 87 0.0   0 16.1 101.39     LegendNANA
23:00 -21.3 -23.5 83 0.0   0 16.1 101.36     LegendNANA

Notes on Data Quality.

Legend

  • E = Estimated
  • M = Missing
  • NA = Not Available*
  • [empty] = Indicates an unobserved value
Date modified: